Year,Month,Day,Hour,Minute,Value (Times are PST for windgust in km/hr)
2010,03,14,00,00,16.10
2010,03,14,00,01,14.50
2010,03,14,00,02,9.60
2010,03,14,00,03,8.10
2010,03,14,00,04,8.10
2010,03,14,00,05,11.30
2010,03,14,00,06,16.10
2010,03,14,00,07,11.30
2010,03,14,00,08,17.70
2010,03,14,00,09,17.70
2010,03,14,00,10,12.90
2010,03,14,00,11,11.30
2010,03,14,00,12,17.70
2010,03,14,00,13,9.60
2010,03,14,00,14,17.70
2010,03,14,00,15,9.60
2010,03,14,00,16,9.60
2010,03,14,00,17,16.10
2010,03,14,00,18,17.70
2010,03,14,00,19,9.60
2010,03,14,00,20,16.10
2010,03,14,00,21,17.70
2010,03,14,00,22,14.50
2010,03,14,00,23,11.30
2010,03,14,00,24,9.60
2010,03,14,00,25,11.30
2010,03,14,00,26,17.70
2010,03,14,00,27,14.50
2010,03,14,00,28,14.50
2010,03,14,00,29,12.90
2010,03,14,00,30,14.50
2010,03,14,00,31,16.10
2010,03,14,00,32,14.50
2010,03,14,00,33,19.30
2010,03,14,00,34,14.50
2010,03,14,00,35,14.50
2010,03,14,00,36,14.50
2010,03,14,00,37,19.30
2010,03,14,00,38,19.30
2010,03,14,00,39,20.90
2010,03,14,00,40,19.30
2010,03,14,00,41,14.50
2010,03,14,00,42,16.10
2010,03,14,00,43,19.30
2010,03,14,00,44,24.20
2010,03,14,00,45,16.10
2010,03,14,00,46,16.10
2010,03,14,00,47,11.30
2010,03,14,00,48,17.70
2010,03,14,00,49,22.50
2010,03,14,00,50,20.90
2010,03,14,00,51,19.30
2010,03,14,00,52,11.30
2010,03,14,00,53,11.30
2010,03,14,00,54,19.30
2010,03,14,00,55,22.50
2010,03,14,00,56,17.70
2010,03,14,00,57,14.50
2010,03,14,00,58,16.10
2010,03,14,00,59,14.50
2010,03,14,01,00,16.10
2010,03,14,01,01,19.30
2010,03,14,01,02,17.70
2010,03,14,01,03,17.70
2010,03,14,01,04,22.50
2010,03,14,01,05,14.50
2010,03,14,01,06,9.60
2010,03,14,01,07,22.50
2010,03,14,01,08,11.30
2010,03,14,01,09,9.60
2010,03,14,01,10,8.10
2010,03,14,01,11,16.10
2010,03,14,01,12,16.10
2010,03,14,01,13,14.50
2010,03,14,01,14,11.30
2010,03,14,01,15,17.70
2010,03,14,01,16,11.30
2010,03,14,01,17,9.60
2010,03,14,01,18,14.50
2010,03,14,01,19,11.30
2010,03,14,01,20,9.60
2010,03,14,01,21,9.60
2010,03,14,01,22,9.60
2010,03,14,01,23,6.40
2010,03,14,01,24,11.30
2010,03,14,01,25,14.50
2010,03,14,01,26,6.40
2010,03,14,01,27,11.30
2010,03,14,01,28,11.30
2010,03,14,01,29,12.90
2010,03,14,01,30,12.90
2010,03,14,01,31,9.60
2010,03,14,01,32,6.40
2010,03,14,01,33,8.10
2010,03,14,01,34,8.10
2010,03,14,01,35,9.60
2010,03,14,01,36,9.60
2010,03,14,01,37,8.10
2010,03,14,01,38,8.10
2010,03,14,01,39,8.10
2010,03,14,01,40,9.60
2010,03,14,01,41,9.60
2010,03,14,01,42,8.10
2010,03,14,01,43,6.40
2010,03,14,01,44,6.40
2010,03,14,01,45,4.80
2010,03,14,01,46,6.40
2010,03,14,01,47,8.10
2010,03,14,01,48,6.40
2010,03,14,01,49,8.10
2010,03,14,01,50,9.60
2010,03,14,01,51,6.40
2010,03,14,01,52,9.60
2010,03,14,01,53,11.30
2010,03,14,01,54,11.30
2010,03,14,01,55,8.10
2010,03,14,01,56,11.30
2010,03,14,01,57,11.30
2010,03,14,01,58,9.60
2010,03,14,01,59,6.40
2010,03,14,03,00,4.80
2010,03,14,03,01,6.40
2010,03,14,03,02,14.50
2010,03,14,03,03,17.70
2010,03,14,03,04,11.30
2010,03,14,03,05,12.90
2010,03,14,03,06,11.30
2010,03,14,03,07,14.50
2010,03,14,03,08,11.30
2010,03,14,03,09,14.50
2010,03,14,03,10,14.50
2010,03,14,03,11,14.50
2010,03,14,03,12,9.60
2010,03,14,03,13,14.50
2010,03,14,03,14,11.30
2010,03,14,03,15,6.40
2010,03,14,03,16,8.10
2010,03,14,03,17,11.30
2010,03,14,03,18,12.90
2010,03,14,03,19,6.40
2010,03,14,03,20,6.40
2010,03,14,03,21,9.60
2010,03,14,03,22,11.30
2010,03,14,03,23,17.70
2010,03,14,03,24,14.50
2010,03,14,03,25,11.30
2010,03,14,03,26,9.60
2010,03,14,03,27,9.60
2010,03,14,03,28,19.30
2010,03,14,03,29,19.30
2010,03,14,03,30,11.30
2010,03,14,03,31,9.60
2010,03,14,03,32,8.10
2010,03,14,03,33,16.10
2010,03,14,03,34,16.10
2010,03,14,03,35,11.30
2010,03,14,03,36,11.30
2010,03,14,03,37,11.30
2010,03,14,03,38,11.30
2010,03,14,03,39,9.60
2010,03,14,03,40,11.30
2010,03,14,03,41,12.90
2010,03,14,03,42,9.60
2010,03,14,03,43,8.10
2010,03,14,03,44,12.90
2010,03,14,03,45,16.10
2010,03,14,03,46,11.30
2010,03,14,03,47,8.10
2010,03,14,03,48,8.10
2010,03,14,03,49,16.10
2010,03,14,03,50,12.90
2010,03,14,03,51,6.40
2010,03,14,03,52,9.60
2010,03,14,03,53,8.10
2010,03,14,03,54,12.90
2010,03,14,03,55,11.30
2010,03,14,03,56,20.90
2010,03,14,03,57,16.10
2010,03,14,03,58,12.90
2010,03,14,03,59,14.50
2010,03,14,04,00,11.30
2010,03,14,04,01,9.60
2010,03,14,04,02,11.30
2010,03,14,04,03,14.50
2010,03,14,04,04,16.10
2010,03,14,04,05,11.30
2010,03,14,04,06,9.60
2010,03,14,04,07,11.30
2010,03,14,04,08,16.10
2010,03,14,04,09,14.50
2010,03,14,04,10,11.30
2010,03,14,04,11,14.50
2010,03,14,04,12,12.90
2010,03,14,04,13,12.90
2010,03,14,04,14,8.10
2010,03,14,04,15,14.50
2010,03,14,04,16,16.10
2010,03,14,04,17,9.60
2010,03,14,04,18,9.60
2010,03,14,04,19,11.30
2010,03,14,04,20,9.60
2010,03,14,04,21,9.60
2010,03,14,04,22,8.10
2010,03,14,04,23,6.40
2010,03,14,04,24,11.30
2010,03,14,04,25,6.40
2010,03,14,04,26,6.40
2010,03,14,04,27,9.60
2010,03,14,04,28,8.10
2010,03,14,04,29,11.30
2010,03,14,04,30,11.30
2010,03,14,04,31,12.90
2010,03,14,04,32,9.60
2010,03,14,04,33,11.30
2010,03,14,04,34,8.10
2010,03,14,04,35,14.50
2010,03,14,04,36,9.60
2010,03,14,04,37,9.60
2010,03,14,04,38,9.60
2010,03,14,04,39,16.10
2010,03,14,04,40,14.50
2010,03,14,04,41,16.10
2010,03,14,04,42,11.30
2010,03,14,04,43,11.30
2010,03,14,04,44,9.60
2010,03,14,04,45,11.30
2010,03,14,04,46,9.60
2010,03,14,04,47,11.30
2010,03,14,04,48,11.30
2010,03,14,04,49,14.50
2010,03,14,04,50,11.30
2010,03,14,04,51,9.60
2010,03,14,04,52,11.30
2010,03,14,04,53,8.10
2010,03,14,04,54,9.60
2010,03,14,04,55,14.50
2010,03,14,04,56,17.70
2010,03,14,04,57,11.30
2010,03,14,04,58,9.60
2010,03,14,04,59,11.30
2010,03,14,05,00,8.10
2010,03,14,05,01,11.30
2010,03,14,05,02,9.60
2010,03,14,05,03,11.30
2010,03,14,05,04,11.30
2010,03,14,05,05,14.50
2010,03,14,05,06,9.60
2010,03,14,05,07,9.60
2010,03,14,05,08,17.70
2010,03,14,05,09,12.90
2010,03,14,05,10,12.90
2010,03,14,05,11,14.50
2010,03,14,05,12,16.10
2010,03,14,05,13,11.30
2010,03,14,05,14,9.60
2010,03,14,05,15,14.50
2010,03,14,05,16,17.70
2010,03,14,05,17,9.60
2010,03,14,05,18,6.40
2010,03,14,05,19,8.10
2010,03,14,05,20,8.10
2010,03,14,05,21,9.60
2010,03,14,05,22,11.30
2010,03,14,05,23,14.50
2010,03,14,05,24,8.10
2010,03,14,05,25,8.10
2010,03,14,05,26,8.10
2010,03,14,05,27,14.50
2010,03,14,05,28,16.10
2010,03,14,05,29,11.30
2010,03,14,05,30,16.10
2010,03,14,05,31,12.90
2010,03,14,05,32,11.30
2010,03,14,05,33,8.10
2010,03,14,05,34,12.90
2010,03,14,05,35,11.30
2010,03,14,05,36,14.50
2010,03,14,05,37,20.90
2010,03,14,05,38,16.10
2010,03,14,05,39,16.10
2010,03,14,05,40,14.50
2010,03,14,05,41,22.50
2010,03,14,05,42,16.10
2010,03,14,05,43,24.20
2010,03,14,05,44,17.70
2010,03,14,05,45,12.90
2010,03,14,05,46,19.30
2010,03,14,05,47,20.90
2010,03,14,05,48,17.70
2010,03,14,05,49,16.10
2010,03,14,05,50,17.70
2010,03,14,05,51,22.50
2010,03,14,05,52,17.70
2010,03,14,05,53,17.70
2010,03,14,05,54,17.70
2010,03,14,05,55,19.30
2010,03,14,05,56,16.10
2010,03,14,05,57,11.30
2010,03,14,05,58,17.70
2010,03,14,05,59,20.90
2010,03,14,06,00,22.50
2010,03,14,06,01,20.90
2010,03,14,06,02,16.10
2010,03,14,06,03,11.30
2010,03,14,06,04,9.60
2010,03,14,06,05,9.60
2010,03,14,06,06,9.60
2010,03,14,06,07,16.10
2010,03,14,06,08,20.90
2010,03,14,06,09,14.50
2010,03,14,06,10,9.60
2010,03,14,06,11,14.50
2010,03,14,06,12,11.30
2010,03,14,06,13,9.60
2010,03,14,06,14,6.40
2010,03,14,06,15,9.60
2010,03,14,06,16,9.60
2010,03,14,06,17,9.60
2010,03,14,06,18,8.10
2010,03,14,06,19,9.60
2010,03,14,06,20,11.30
2010,03,14,06,21,9.60
2010,03,14,06,22,4.80
2010,03,14,06,23,11.30
2010,03,14,06,24,11.30
2010,03,14,06,25,9.60
2010,03,14,06,26,14.50
2010,03,14,06,27,11.30
2010,03,14,06,28,17.70
2010,03,14,06,29,11.30
2010,03,14,06,30,11.30
2010,03,14,06,31,14.50
2010,03,14,06,32,14.50
2010,03,14,06,33,9.60
2010,03,14,06,34,8.10
2010,03,14,06,35,8.10
2010,03,14,06,36,8.10
2010,03,14,06,37,4.80
2010,03,14,06,38,11.30
2010,03,14,06,39,16.10
2010,03,14,06,40,8.10
2010,03,14,06,41,9.60
2010,03,14,06,42,11.30
2010,03,14,06,43,11.30
2010,03,14,06,44,11.30
2010,03,14,06,45,16.10
2010,03,14,06,46,12.90
2010,03,14,06,47,11.30
2010,03,14,06,48,17.70
2010,03,14,06,49,19.30
2010,03,14,06,50,16.10
2010,03,14,06,51,8.10
2010,03,14,06,52,8.10
2010,03,14,06,53,19.30
2010,03,14,06,54,17.70
2010,03,14,06,55,11.30
2010,03,14,06,56,14.50
2010,03,14,06,57,19.30
2010,03,14,06,58,17.70
2010,03,14,06,59,14.50
2010,03,14,07,00,11.30
2010,03,14,07,01,8.10
2010,03,14,07,02,17.70
2010,03,14,07,03,14.50
2010,03,14,07,04,11.30
2010,03,14,07,05,9.60
2010,03,14,07,06,11.30
2010,03,14,07,07,11.30
2010,03,14,07,08,14.50
2010,03,14,07,09,17.70
2010,03,14,07,10,16.10
2010,03,14,07,11,12.90
2010,03,14,07,12,14.50
2010,03,14,07,13,16.10
2010,03,14,07,14,16.10
2010,03,14,07,15,11.30
2010,03,14,07,16,6.40
2010,03,14,07,17,9.60
2010,03,14,07,18,12.90
2010,03,14,07,19,11.30
2010,03,14,07,20,17.70
2010,03,14,07,21,11.30
2010,03,14,07,22,9.60
2010,03,14,07,23,9.60
2010,03,14,07,24,11.30
2010,03,14,07,25,14.50
2010,03,14,07,26,16.10
2010,03,14,07,27,16.10
2010,03,14,07,28,14.50
2010,03,14,07,29,16.10
2010,03,14,07,30,14.50
2010,03,14,07,31,19.30
2010,03,14,07,32,16.10
2010,03,14,07,33,9.60
2010,03,14,07,34,17.70
2010,03,14,07,35,16.10
2010,03,14,07,36,24.20
2010,03,14,07,37,9.60
2010,03,14,07,38,17.70
2010,03,14,07,39,17.70
2010,03,14,07,40,17.70
2010,03,14,07,41,17.70
2010,03,14,07,42,19.30
2010,03,14,07,43,17.70
2010,03,14,07,44,8.10
2010,03,14,07,45,9.60
2010,03,14,07,46,14.50
2010,03,14,07,47,14.50
2010,03,14,07,48,16.10
2010,03,14,07,49,19.30
2010,03,14,07,50,14.50
2010,03,14,07,51,19.30
2010,03,14,07,52,14.50
2010,03,14,07,53,19.30
2010,03,14,07,54,14.50
2010,03,14,07,55,17.70
2010,03,14,07,56,16.10
2010,03,14,07,57,12.90
2010,03,14,07,58,16.10
2010,03,14,07,59,19.30
2010,03,14,08,00,11.30
2010,03,14,08,01,8.10
2010,03,14,08,02,16.10
2010,03,14,08,03,16.10
2010,03,14,08,04,14.50
2010,03,14,08,05,14.50
2010,03,14,08,06,12.90
2010,03,14,08,07,14.50
2010,03,14,08,08,14.50
2010,03,14,08,09,9.60
2010,03,14,08,10,9.60
2010,03,14,08,11,11.30
2010,03,14,08,12,16.10
2010,03,14,08,13,11.30
2010,03,14,08,14,14.50
2010,03,14,08,15,14.50
2010,03,14,08,16,14.50
2010,03,14,08,17,14.50
2010,03,14,08,18,16.10
2010,03,14,08,19,8.10
2010,03,14,08,20,11.30
2010,03,14,08,21,11.30
2010,03,14,08,22,19.30
2010,03,14,08,23,14.50
2010,03,14,08,24,16.10
2010,03,14,08,25,12.90
2010,03,14,08,26,16.10
2010,03,14,08,27,12.90
2010,03,14,08,28,16.10
2010,03,14,08,29,16.10
2010,03,14,08,30,22.50
2010,03,14,08,31,19.30
2010,03,14,08,32,14.50
2010,03,14,08,33,22.50
2010,03,14,08,34,16.10
2010,03,14,08,35,17.70
2010,03,14,08,36,14.50
2010,03,14,08,37,16.10
2010,03,14,08,38,9.60
2010,03,14,08,39,19.30
2010,03,14,08,40,17.70
2010,03,14,08,41,17.70
2010,03,14,08,42,16.10
2010,03,14,08,43,16.10
2010,03,14,08,44,14.50
2010,03,14,08,45,14.50
2010,03,14,08,46,11.30
2010,03,14,08,47,9.60
2010,03,14,08,48,9.60
2010,03,14,08,49,17.70
2010,03,14,08,50,9.60
2010,03,14,08,51,11.30
2010,03,14,08,52,11.30
2010,03,14,08,53,16.10
2010,03,14,08,54,16.10
2010,03,14,08,55,16.10
2010,03,14,08,56,17.70
2010,03,14,08,57,17.70
2010,03,14,08,58,11.30
2010,03,14,08,59,11.30
2010,03,14,09,00,14.50
2010,03,14,09,01,19.30
2010,03,14,09,02,19.30
2010,03,14,09,03,14.50
2010,03,14,09,04,9.60
2010,03,14,09,05,11.30
2010,03,14,09,06,14.50
2010,03,14,09,07,11.30
2010,03,14,09,08,9.60
2010,03,14,09,09,17.70
2010,03,14,09,10,19.30
2010,03,14,09,11,16.10
2010,03,14,09,12,16.10
2010,03,14,09,13,17.70
2010,03,14,09,14,12.90
2010,03,14,09,15,14.50
2010,03,14,09,16,11.30
2010,03,14,09,17,19.30
2010,03,14,09,18,17.70
2010,03,14,09,19,16.10
2010,03,14,09,20,19.30
2010,03,14,09,21,14.50
2010,03,14,09,22,8.10
2010,03,14,09,23,24.20
2010,03,14,09,24,20.90
2010,03,14,09,25,19.30
2010,03,14,09,26,14.50
2010,03,14,09,27,19.30
2010,03,14,09,28,17.70
2010,03,14,09,29,19.30
2010,03,14,09,30,11.30
2010,03,14,09,31,14.50
2010,03,14,09,32,20.90
2010,03,14,09,33,16.10
2010,03,14,09,34,11.30
2010,03,14,09,35,9.60
2010,03,14,09,36,20.90
2010,03,14,09,37,16.10
2010,03,14,09,38,24.20
2010,03,14,09,39,22.50
2010,03,14,09,40,20.90
2010,03,14,09,41,19.30
2010,03,14,09,42,22.50
2010,03,14,09,43,24.20
2010,03,14,09,44,22.50
2010,03,14,09,45,22.50
2010,03,14,09,46,17.70
2010,03,14,09,47,24.20
2010,03,14,09,48,22.50
2010,03,14,09,49,24.20
2010,03,14,09,50,22.50
2010,03,14,09,51,17.70
2010,03,14,09,52,16.10
2010,03,14,09,53,20.90
2010,03,14,09,54,19.30
2010,03,14,09,55,16.10
2010,03,14,09,56,17.70
2010,03,14,09,57,22.50
2010,03,14,09,58,19.30
2010,03,14,09,59,19.30
2010,03,14,10,00,12.90
2010,03,14,10,01,16.10
2010,03,14,10,02,16.10
2010,03,14,10,03,16.10
2010,03,14,10,04,17.70
2010,03,14,10,05,17.70
2010,03,14,10,06,17.70
2010,03,14,10,07,14.50
2010,03,14,10,08,16.10
2010,03,14,10,09,17.70
2010,03,14,10,10,20.90
2010,03,14,10,11,14.50
2010,03,14,10,12,11.30
2010,03,14,10,13,11.30
2010,03,14,10,14,19.30
2010,03,14,10,15,17.70
2010,03,14,10,16,17.70
2010,03,14,10,17,14.50
2010,03,14,10,18,9.60
2010,03,14,10,19,12.90
2010,03,14,10,20,17.70
2010,03,14,10,21,19.30
2010,03,14,10,22,17.70
2010,03,14,10,23,16.10
2010,03,14,10,24,11.30
2010,03,14,10,25,12.90
2010,03,14,10,26,11.30
2010,03,14,10,27,17.70
2010,03,14,10,28,20.90
2010,03,14,10,29,14.50
2010,03,14,10,30,11.30
2010,03,14,10,31,9.60
2010,03,14,10,32,11.30
2010,03,14,10,33,8.10
2010,03,14,10,34,12.90
2010,03,14,10,35,16.10
2010,03,14,10,36,11.30
2010,03,14,10,37,11.30
2010,03,14,10,38,16.10
2010,03,14,10,39,12.90
2010,03,14,10,40,9.60
2010,03,14,10,41,8.10
2010,03,14,10,42,9.60
2010,03,14,10,43,8.10
2010,03,14,10,44,4.80
2010,03,14,10,45,11.30
2010,03,14,10,46,8.10
2010,03,14,10,47,9.60
2010,03,14,10,48,14.50
2010,03,14,10,49,17.70
2010,03,14,10,50,19.30
2010,03,14,10,51,16.10
2010,03,14,10,52,17.70
2010,03,14,10,53,16.10
2010,03,14,10,54,19.30
2010,03,14,10,55,20.90
2010,03,14,10,56,14.50
2010,03,14,10,57,20.90
2010,03,14,10,58,25.70
2010,03,14,10,59,17.70
2010,03,14,11,00,16.10
2010,03,14,11,01,19.30
2010,03,14,11,02,16.10
2010,03,14,11,03,17.70
2010,03,14,11,04,17.70
2010,03,14,11,05,12.90
2010,03,14,11,06,9.60
2010,03,14,11,07,16.10
2010,03,14,11,08,14.50
2010,03,14,11,09,11.30
2010,03,14,11,10,11.30
2010,03,14,11,11,11.30
2010,03,14,11,12,11.30
2010,03,14,11,13,16.10
2010,03,14,11,14,9.60
2010,03,14,11,15,6.40
2010,03,14,11,16,14.50
2010,03,14,11,17,11.30
2010,03,14,11,18,11.30
2010,03,14,11,19,17.70
2010,03,14,11,20,16.10
2010,03,14,11,21,14.50
2010,03,14,11,22,14.50
2010,03,14,11,23,11.30
2010,03,14,11,24,19.30
2010,03,14,11,25,19.30
2010,03,14,11,26,11.30
2010,03,14,11,27,9.60
2010,03,14,11,28,11.30
2010,03,14,11,29,11.30
2010,03,14,11,30,17.70
2010,03,14,11,31,9.60
2010,03,14,11,32,9.60
2010,03,14,11,33,8.10
2010,03,14,11,34,6.40
2010,03,14,11,35,3.20
2010,03,14,11,36,8.10
2010,03,14,11,37,11.30
2010,03,14,11,38,14.50
2010,03,14,11,39,9.60
2010,03,14,11,40,8.10
2010,03,14,11,41,8.10
2010,03,14,11,42,6.40
2010,03,14,11,43,8.10
2010,03,14,11,44,16.10
2010,03,14,11,45,14.50
2010,03,14,11,46,9.60
2010,03,14,11,47,9.60
2010,03,14,11,48,16.10
2010,03,14,11,49,16.10
2010,03,14,11,50,16.10
2010,03,14,11,51,16.10
2010,03,14,11,52,17.70
2010,03,14,11,53,19.30
2010,03,14,11,54,19.30
2010,03,14,11,55,11.30
2010,03,14,11,56,8.10
2010,03,14,11,57,9.60
2010,03,14,11,58,16.10
2010,03,14,11,59,12.90
2010,03,14,12,00,12.90
2010,03,14,12,01,6.40
2010,03,14,12,02,6.40
2010,03,14,12,03,9.60
2010,03,14,12,04,8.10
2010,03,14,12,05,14.50
2010,03,14,12,06,12.90
2010,03,14,12,07,19.30
2010,03,14,12,08,20.90
2010,03,14,12,09,11.30
2010,03,14,12,10,3.20
2010,03,14,12,11,16.10
2010,03,14,12,12,19.30
2010,03,14,12,13,12.90
2010,03,14,12,14,11.30
2010,03,14,12,15,6.40
2010,03,14,12,16,9.60
2010,03,14,12,17,11.30
2010,03,14,12,18,9.60
2010,03,14,12,19,11.30
2010,03,14,12,20,11.30
2010,03,14,12,21,11.30
2010,03,14,12,22,22.50
2010,03,14,12,23,19.30
2010,03,14,12,24,20.90
2010,03,14,12,25,19.30
2010,03,14,12,26,25.70
2010,03,14,12,27,22.50
2010,03,14,12,28,20.90
2010,03,14,12,29,20.90
2010,03,14,12,30,22.50
2010,03,14,12,31,19.30
2010,03,14,12,32,19.30
2010,03,14,12,33,17.70
2010,03,14,12,34,16.10
2010,03,14,12,35,19.30
2010,03,14,12,36,19.30
2010,03,14,12,37,16.10
2010,03,14,12,38,22.50
2010,03,14,12,39,22.50
2010,03,14,12,40,11.30
2010,03,14,12,41,19.30
2010,03,14,12,42,19.30
2010,03,14,12,43,19.30
2010,03,14,12,44,29.00
2010,03,14,12,45,20.90
2010,03,14,12,46,17.70
2010,03,14,12,47,19.30
2010,03,14,12,48,20.90
2010,03,14,12,49,20.90
2010,03,14,12,50,16.10
2010,03,14,12,51,17.70
2010,03,14,12,52,9.60
2010,03,14,12,53,8.10
2010,03,14,12,54,16.10
2010,03,14,12,55,17.70
2010,03,14,12,56,19.30
2010,03,14,12,57,14.50
2010,03,14,12,58,20.90
2010,03,14,12,59,17.70
2010,03,14,13,00,19.30
2010,03,14,13,01,22.50
2010,03,14,13,02,20.90
2010,03,14,13,03,17.70
2010,03,14,13,04,14.50
2010,03,14,13,05,16.10
2010,03,14,13,06,17.70
2010,03,14,13,07,14.50
2010,03,14,13,08,11.30
2010,03,14,13,09,20.90
2010,03,14,13,10,14.50
2010,03,14,13,11,20.90
2010,03,14,13,12,16.10
2010,03,14,13,13,9.60
2010,03,14,13,14,16.10
2010,03,14,13,15,9.60
2010,03,14,13,16,20.90
2010,03,14,13,17,20.90
2010,03,14,13,18,14.50
2010,03,14,13,19,14.50
2010,03,14,13,20,9.60
2010,03,14,13,21,16.10
2010,03,14,13,22,16.10
2010,03,14,13,23,9.60
2010,03,14,13,24,9.60
2010,03,14,13,25,9.60
2010,03,14,13,26,9.60
2010,03,14,13,27,9.60
2010,03,14,13,28,9.60
2010,03,14,13,29,8.10
2010,03,14,13,30,11.30
2010,03,14,13,31,8.10
2010,03,14,13,32,9.60
2010,03,14,13,33,11.30
2010,03,14,13,34,14.50
2010,03,14,13,35,19.30
2010,03,14,13,36,17.70
2010,03,14,13,37,17.70
2010,03,14,13,38,17.70
2010,03,14,13,39,16.10
2010,03,14,13,40,17.70
2010,03,14,13,41,12.90
2010,03,14,13,42,14.50
2010,03,14,13,43,9.60
2010,03,14,13,44,6.40
2010,03,14,13,45,9.60
2010,03,14,13,46,12.90
2010,03,14,13,47,20.90
2010,03,14,13,48,14.50
2010,03,14,13,49,17.70
2010,03,14,13,50,19.30
2010,03,14,13,51,17.70
2010,03,14,13,52,19.30
2010,03,14,13,53,22.50
2010,03,14,13,54,16.10
2010,03,14,13,55,12.90
2010,03,14,13,56,19.30
2010,03,14,13,57,22.50
2010,03,14,13,58,25.70
2010,03,14,13,59,22.50
2010,03,14,14,00,14.50
2010,03,14,14,01,14.50
2010,03,14,14,02,11.30
2010,03,14,14,03,9.60
2010,03,14,14,04,11.30
2010,03,14,14,05,11.30
2010,03,14,14,06,9.60
2010,03,14,14,07,12.90
2010,03,14,14,08,14.50
2010,03,14,14,09,11.30
2010,03,14,14,10,9.60
2010,03,14,14,11,4.80
2010,03,14,14,12,11.30
2010,03,14,14,13,16.10
2010,03,14,14,14,12.90
2010,03,14,14,15,16.10
2010,03,14,14,16,14.50
2010,03,14,14,17,16.10
2010,03,14,14,18,11.30
2010,03,14,14,19,8.10
2010,03,14,14,20,4.80
2010,03,14,14,21,8.10
2010,03,14,14,22,4.80
2010,03,14,14,23,6.40
2010,03,14,14,24,11.30
2010,03,14,14,25,6.40
2010,03,14,14,26,6.40
2010,03,14,14,27,8.10
2010,03,14,14,28,6.40
2010,03,14,14,29,6.40
2010,03,14,14,30,9.60
2010,03,14,14,31,9.60
2010,03,14,14,32,16.10
2010,03,14,14,33,11.30
2010,03,14,14,34,11.30
2010,03,14,14,35,11.30
2010,03,14,14,36,19.30
2010,03,14,14,37,14.50
2010,03,14,14,38,12.90
2010,03,14,14,39,16.10
2010,03,14,14,40,11.30
2010,03,14,14,41,9.60
2010,03,14,14,42,14.50
2010,03,14,14,43,8.10
2010,03,14,14,44,12.90
2010,03,14,14,45,17.70
2010,03,14,14,46,14.50
2010,03,14,14,47,9.60
2010,03,14,14,48,11.30
2010,03,14,14,49,14.50
2010,03,14,14,50,14.50
2010,03,14,14,51,11.30
2010,03,14,14,52,19.30
2010,03,14,14,53,9.60
2010,03,14,14,54,14.50
2010,03,14,14,55,11.30
2010,03,14,14,56,9.60
2010,03,14,14,57,4.80
2010,03,14,14,58,4.80
2010,03,14,14,59,4.80
2010,03,14,15,00,4.80
2010,03,14,15,01,6.40
2010,03,14,15,02,9.60
2010,03,14,15,03,8.10
2010,03,14,15,04,8.10
2010,03,14,15,05,11.30
2010,03,14,15,06,11.30
2010,03,14,15,07,9.60
2010,03,14,15,08,9.60
2010,03,14,15,09,14.50
2010,03,14,15,10,11.30
2010,03,14,15,11,8.10
2010,03,14,15,12,6.40
2010,03,14,15,13,4.80
2010,03,14,15,14,9.60
2010,03,14,15,15,8.10
2010,03,14,15,16,6.40
2010,03,14,15,17,8.10
2010,03,14,15,18,6.40
2010,03,14,15,19,6.40
2010,03,14,15,20,6.40
2010,03,14,15,21,6.40
2010,03,14,15,22,9.60
2010,03,14,15,23,9.60
2010,03,14,15,24,6.40
2010,03,14,15,25,6.40
2010,03,14,15,26,8.10
2010,03,14,15,27,9.60
2010,03,14,15,28,6.40
2010,03,14,15,29,4.80
2010,03,14,15,30,8.10
2010,03,14,15,31,6.40
2010,03,14,15,32,8.10
2010,03,14,15,33,6.40
2010,03,14,15,34,6.40
2010,03,14,15,35,6.40
2010,03,14,15,36,4.80
2010,03,14,15,37,4.80
2010,03,14,15,38,6.40
2010,03,14,15,39,8.10
2010,03,14,15,40,6.40
2010,03,14,15,41,4.80
2010,03,14,15,42,6.40
2010,03,14,15,43,3.20
2010,03,14,15,44,8.10
2010,03,14,15,45,9.60
2010,03,14,15,46,9.60
2010,03,14,15,47,8.10
2010,03,14,15,48,8.10
2010,03,14,15,49,6.40
2010,03,14,15,50,6.40
2010,03,14,15,51,6.40
2010,03,14,15,52,6.40
2010,03,14,15,53,8.10
2010,03,14,15,54,8.10
2010,03,14,15,55,8.10
2010,03,14,15,56,8.10
2010,03,14,15,57,9.60
2010,03,14,15,58,3.20
2010,03,14,15,59,9.60
2010,03,14,16,00,8.10
2010,03,14,16,01,8.10
2010,03,14,16,02,6.40
2010,03,14,16,03,4.80
2010,03,14,16,04,4.80
2010,03,14,16,05,8.10
2010,03,14,16,06,6.40
2010,03,14,16,07,4.80
2010,03,14,16,08,4.80
2010,03,14,16,09,6.40
2010,03,14,16,10,4.80
2010,03,14,16,11,8.10
2010,03,14,16,12,4.80
2010,03,14,16,13,4.80
2010,03,14,16,14,4.80
2010,03,14,16,15,4.80
2010,03,14,16,16,4.80
2010,03,14,16,17,4.80
2010,03,14,16,18,4.80
2010,03,14,16,19,8.10
2010,03,14,16,20,4.80
2010,03,14,16,21,4.80
2010,03,14,16,22,4.80
2010,03,14,16,23,3.20
2010,03,14,16,24,3.20
2010,03,14,16,25,4.80
2010,03,14,16,26,3.20
2010,03,14,16,27,1.60
2010,03,14,16,28,1.60
2010,03,14,16,29,1.60
2010,03,14,16,30,3.20
2010,03,14,16,31,6.40
2010,03,14,16,32,8.10
2010,03,14,16,33,6.40
2010,03,14,16,34,4.80
2010,03,14,16,35,4.80
2010,03,14,16,36,6.40
2010,03,14,16,37,4.80
2010,03,14,16,38,3.20
2010,03,14,16,39,6.40
2010,03,14,16,40,6.40
2010,03,14,16,41,6.40
2010,03,14,16,42,4.80
2010,03,14,16,43,9.60
2010,03,14,16,44,8.10
2010,03,14,16,45,6.40
2010,03,14,16,46,6.40
2010,03,14,16,47,6.40
2010,03,14,16,48,6.40
2010,03,14,16,49,4.80
2010,03,14,16,50,6.40
2010,03,14,16,51,4.80
2010,03,14,16,52,4.80
2010,03,14,16,53,4.80
2010,03,14,16,54,6.40
2010,03,14,16,55,8.10
2010,03,14,16,56,4.80
2010,03,14,16,57,4.80
2010,03,14,16,58,6.40
2010,03,14,16,59,6.40
2010,03,14,17,00,4.80
2010,03,14,17,01,4.80
2010,03,14,17,02,6.40
2010,03,14,17,03,4.80
2010,03,14,17,04,4.80
2010,03,14,17,05,6.40
2010,03,14,17,06,8.10
2010,03,14,17,07,4.80
2010,03,14,17,08,4.80
2010,03,14,17,09,4.80
2010,03,14,17,10,3.20
2010,03,14,17,11,4.80
2010,03,14,17,12,6.40
2010,03,14,17,13,6.40
2010,03,14,17,14,8.10
2010,03,14,17,15,6.40
2010,03,14,17,16,6.40
2010,03,14,17,17,6.40
2010,03,14,17,18,4.80
2010,03,14,17,19,6.40
2010,03,14,17,20,8.10
2010,03,14,17,21,8.10
2010,03,14,17,22,9.60
2010,03,14,17,23,6.40
2010,03,14,17,24,6.40
2010,03,14,17,25,8.10
2010,03,14,17,26,8.10
2010,03,14,17,27,8.10
2010,03,14,17,28,9.60
2010,03,14,17,29,11.30
2010,03,14,17,30,9.60
2010,03,14,17,31,11.30
2010,03,14,17,32,6.40
2010,03,14,17,33,8.10
2010,03,14,17,34,8.10
2010,03,14,17,35,11.30
2010,03,14,17,36,9.60
2010,03,14,17,37,8.10
2010,03,14,17,38,9.60
2010,03,14,17,39,8.10
2010,03,14,17,40,9.60
2010,03,14,17,41,9.60
2010,03,14,17,42,9.60
2010,03,14,17,43,9.60
2010,03,14,17,44,8.10
2010,03,14,17,45,8.10
2010,03,14,17,46,6.40
2010,03,14,17,47,6.40
2010,03,14,17,48,8.10
2010,03,14,17,49,6.40
2010,03,14,17,50,4.80
2010,03,14,17,51,4.80
2010,03,14,17,52,6.40
2010,03,14,17,53,6.40
2010,03,14,17,54,8.10
2010,03,14,17,55,9.60
2010,03,14,17,56,8.10
2010,03,14,17,57,8.10
2010,03,14,17,58,11.30
2010,03,14,17,59,8.10
2010,03,14,18,00,9.60
2010,03,14,18,01,4.80
2010,03,14,18,02,8.10
2010,03,14,18,03,9.60
2010,03,14,18,04,4.80
2010,03,14,18,05,8.10
2010,03,14,18,06,8.10
2010,03,14,18,07,11.30
2010,03,14,18,08,6.40
2010,03,14,18,09,6.40
2010,03,14,18,10,6.40
2010,03,14,18,11,11.30
2010,03,14,18,12,9.60
2010,03,14,18,13,8.10
2010,03,14,18,14,9.60
2010,03,14,18,15,8.10
2010,03,14,18,16,8.10
2010,03,14,18,17,8.10
2010,03,14,18,18,6.40
2010,03,14,18,19,4.80
2010,03,14,18,20,6.40
2010,03,14,18,21,8.10
2010,03,14,18,22,4.80
2010,03,14,18,23,11.30
2010,03,14,18,24,9.60
2010,03,14,18,25,11.30
2010,03,14,18,26,14.50
2010,03,14,18,27,4.80
2010,03,14,18,28,4.80
2010,03,14,18,29,4.80
2010,03,14,18,30,9.60
2010,03,14,18,31,9.60
2010,03,14,18,32,11.30
2010,03,14,18,33,8.10
2010,03,14,18,34,14.50
2010,03,14,18,35,9.60
2010,03,14,18,36,9.60
2010,03,14,18,37,8.10